Regional Weather Roundup
Issued by NWS

Home | Current Version | Previous Version | Text Only | Print | Product List | Glossary On
Versions: 1 2 3 4 5 6 7 8 9 10 11 12 13 14 15 16 17 18 19 20 21 22 23 24 25 26 27 28 29 30 31 32 33 34 35 36 37 38 39 40 41 42 43 44 45 46 47 48 49 50
000
ASUS43 KBIS 010710
RWRND

NORTH DAKOTA REGIONAL WEATHER ROUNDUP
NATIONAL WEATHER SERVICE BISMARCK ND
200 AM CDT WED OCT 01 2014

NOTE: "FAIR" INDICATES FEW OR NO CLOUDS BELOW 12,000 FEET WITH NO
SIGNIFICANT WEATHER AND/OR OBSTRUCTIONS TO VISIBILITY.


NDZ001>003-009>011-017-010800-
NORTHWEST NORTH DAKOTA

CITY           SKY/WX    TMP DP  RH WIND       PRES   REMARKS
WILLISTON      CLOUDY    53  51  93 SW8       29.48F
MINOT          LGT RAIN  51  50  96 W12       29.41R FOG
MINOT AFB      LGT RAIN  51  51 100 NW9       29.41R
$$

NDZ018>021-031>035-040>046-010800-
SOUTHWEST NORTH DAKOTA

CITY           SKY/WX    TMP DP  RH WIND       PRES   REMARKS
BISMARCK       CLOUDY    54  51  90 SW15      29.52R
DICKINSON      CLOUDY    53  51  93 W14       29.53R
GARRISON         N/A     51  50  96 W12       29.45R
HETTINGER ARPT CLOUDY    53  51  93 SW12      29.59R
$$

NDZ004>008-012>016-024-026-027-054-010800-
NORTHEAST NORTH DAKOTA

CITY           SKY/WX    TMP DP  RH WIND       PRES   REMARKS
GRAND FORKS    CLOUDY    60  53  77 SE20      29.50F
GRND FRKS AFB  CLOUDY    61  59  92 S21       29.49F
DEVILS LAKE    CLOUDY    57  52  82 S21G31    29.38S
$$

NDZ022-023-025-028>030-036>039-047>053-010800-
SOUTHEAST NORTH DAKOTA

CITY           SKY/WX    TMP DP  RH WIND       PRES   REMARKS
FARGO          PTCLDY    62  56  80 S22G31    29.57S
JAMESTOWN      CLOUDY    57  51  80 SW17G24   29.50R
$$




USA.gov is the U.S. government's official web portal to all federal, state and local government web resources and services.